• In Italy
  • List of Countries
  • For 7 days
  • Water Temperature
  • Satellite Maps
  • Weather Map
  • Weather Widgets
  • user-avatar
    Login

    Hourly Weather Kipungo

    Today, 21 July, Friday

    Time Temperature Precipitation Wind Pressure Humidity
    00:00 +16°C° 0 mm 1 mps 655 mmHg 26%
    01:00 +15°C° 0 mm 1 mps 654 mmHg 29%
    02:00 +15°C° 0 mm 1 mps 654 mmHg 31%
    03:00 +13°C° 0 mm 0 mps 653 mmHg 32%
    04:00 +13°C° 0 mm 0 mps 653 mmHg 33%
    05:00 +12°C° 0 mm 0 mps 653 mmHg 33%
    06:00 +13°C° 0 mm 1 mps 654 mmHg 34%
    07:00 +14°C° 0 mm 1 mps 654 mmHg 34%
    08:00 +19°C° 0 mm 1 mps 655 mmHg 28%
    09:00 +23°C° 0 mm 2 mps 656 mmHg 23%
    10:00 +27°C° 0 mm 3 mps 657 mmHg 17%
    11:00 +29°C° 0 mm 2 mps 656 mmHg 15%
    12:00 +31°C° 0 mm 2 mps 656 mmHg 13%
    13:00 +34°C° 0 mm 2 mps 656 mmHg 11%
    14:00 +34°C° 0 mm 2 mps 656 mmHg 11%
    15:00 +33°C° 0 mm 1 mps 655 mmHg 10%
    16:00 +33°C° 0 mm 1 mps 655 mmHg 10%
    17:00 +29°C° 0 mm 1 mps 654 mmHg 13%
    18:00 +26°C° 0 mm 1 mps 654 mmHg 15%
    19:00 +23°C° 0 mm 1 mps 653 mmHg 18%
    20:00 +22°C° 0 mm 1 mps 654 mmHg 20%
    21:00 +21°C° 0 mm 1 mps 654 mmHg 23%
    22:00 +20°C° 0 mm 1 mps 654 mmHg 25%
    23:00 +19°C° 0 mm 1 mps 654 mmHg 28%

    Tomorrow, 22 July, Saturday

    Time Temperature Precipitation Wind Pressure Humidity
    00:00 +18°C° 0 mm 1 mps 654 mmHg 32%
    01:00 +16°C° 0 mm 1 mps 654 mmHg 36%
    02:00 +15°C° 0 mm 1 mps 653 mmHg 38%
    03:00 +14°C° 0 mm 1 mps 653 mmHg 40%
    04:00 +14°C° 0 mm 1 mps 653 mmHg 42%
    05:00 +14°C° 0 mm 1 mps 653 mmHg 41%
    06:00 +13°C° 0 mm 1 mps 653 mmHg 40%
    07:00 +12°C° 0 mm 0 mps 654 mmHg 39%
    08:00 +19°C° 0 mm 1 mps 655 mmHg 31%
    09:00 +23°C° 0 mm 1 mps 656 mmHg 23%
    10:00 +28°C° 0 mm 1 mps 658 mmHg 14%
    11:00 +30°C° 0 mm 1 mps 657 mmHg 13%
    12:00 +32°C° 0 mm 1 mps 657 mmHg 11%
    13:00 +34°C° 0 mm 1 mps 657 mmHg 9%
    14:00 +34°C° 0 mm 1 mps 657 mmHg 9%
    15:00 +33°C° 0 mm 1 mps 656 mmHg 9%
    16:00 +33°C° 0 mm 1 mps 655 mmHg 9%
    17:00 +29°C° 0 mm 1 mps 655 mmHg 12%
    18:00 +24°C° 0 mm 0 mps 655 mmHg 15%
    19:00 +20°C° 0 mm 0 mps 654 mmHg 18%
    20:00 +21°C° 0 mm 1 mps 654 mmHg 23%
    21:00 +20°C° 0 mm 1 mps 655 mmHg 27%
    22:00 +19°C° 0 mm 1 mps 655 mmHg 31%
    23:00 +18°C° 0 mm 1 mps 655 mmHg 35%

    Day after tomorrow, 23 July, Sunday

    Time Temperature Precipitation Wind Pressure Humidity
    00:00 +16°C° 0 mm 1 mps 654 mmHg 40%
    01:00 +15°C° 0 mm 1 mps 654 mmHg 44%
    02:00 +15°C° 0 mm 1 mps 654 mmHg 45%
    03:00 +14°C° 0 mm 1 mps 653 mmHg 45%
    04:00 +14°C° 0 mm 1 mps 653 mmHg 46%
    05:00 +14°C° 0 mm 1 mps 653 mmHg 44%
    06:00 +14°C° 0 mm 1 mps 654 mmHg 43%
    07:00 +12°C° 0 mm 0 mps 654 mmHg 41%
    08:00 +19°C° 0 mm 1 mps 655 mmHg 31%
    09:00 +23°C° 0 mm 2 mps 656 mmHg 22%
    10:00 +27°C° 0 mm 2 mps 658 mmHg 13%
    11:00 +28°C° 0 mm 2 mps 657 mmHg 11%
    12:00 +30°C° 0 mm 2 mps 657 mmHg 10%
    13:00 +32°C° 0 mm 2 mps 657 mmHg 8%
    14:00 +32°C° 0 mm 2 mps 656 mmHg 8%
    15:00 +32°C° 0 mm 1 mps 656 mmHg 8%
    16:00 +32°C° 0 mm 1 mps 655 mmHg 8%
    17:00 +29°C° 0 mm 1 mps 655 mmHg 10%
    18:00 +26°C° 0 mm 1 mps 654 mmHg 12%
    19:00 +22°C° 0 mm 1 mps 654 mmHg 14%
    20:00 +21°C° 0 mm 1 mps 654 mmHg 15%
    21:00 +20°C° 0 mm 1 mps 655 mmHg 15%
    22:00 +19°C° 0 mm 1 mps 655 mmHg 16%
    23:00 +19°C° 0 mm 1 mps 655 mmHg 17%

    24 July, Monday

    Time Temperature Precipitation Wind Pressure Humidity
    00:00 +18°C° 0 mm 1 mps 654 mmHg 19%
    01:00 +16°C° 0 mm 1 mps 654 mmHg 20%
    02:00 +15°C° 0 mm 1 mps 654 mmHg 21%
    03:00 +14°C° 0 mm 1 mps 653 mmHg 23%
    04:00 +14°C° 0 mm 1 mps 653 mmHg 24%
    05:00 +13°C° 0 mm 0 mps 653 mmHg 24%
    06:00 +13°C° 0 mm 0 mps 654 mmHg 24%
    07:00 +13°C° 0 mm 0 mps 654 mmHg 24%
    08:00 +19°C° 0 mm 1 mps 656 mmHg 19%
    09:00 +24°C° 0 mm 1 mps 657 mmHg 14%
    10:00 +28°C° 0 mm 2 mps 658 mmHg 9%
    11:00 +30°C° 0 mm 2 mps 658 mmHg 9%
    12:00 +32°C° 0 mm 2 mps 657 mmHg 8%
    13:00 +34°C° 0 mm 2 mps 657 mmHg 7%
    14:00 +33°C° 0 mm 1 mps 656 mmHg 7%
    15:00 +33°C° 0 mm 1 mps 656 mmHg 7%
    16:00 +33°C° 0 mm 1 mps 655 mmHg 8%
    17:00 +29°C° 0 mm 1 mps 655 mmHg 10%
    18:00 +26°C° 0 mm 1 mps 655 mmHg 13%
    19:00 +22°C° 0 mm 1 mps 655 mmHg 15%
    20:00 +21°C° 0 mm 1 mps 655 mmHg 19%
    21:00 +20°C° 0 mm 1 mps 655 mmHg 23%
    22:00 +18°C° 0 mm 2 mps 655 mmHg 27%
    23:00 +17°C° 0 mm 2 mps 655 mmHg 31%

    25 July, Tuesday

    Time Temperature Precipitation Wind Pressure Humidity
    00:00 +16°C° 0 mm 2 mps 655 mmHg 36%
    01:00 +15°C° 0 mm 1 mps 654 mmHg 41%
    02:00 +15°C° 0 mm 1 mps 654 mmHg 42%
    03:00 +14°C° 0 mm 1 mps 654 mmHg 42%
    04:00 +14°C° 0 mm 1 mps 654 mmHg 43%
    05:00 +14°C° 0 mm 1 mps 654 mmHg 42%
    06:00 +14°C° 0 mm 1 mps 654 mmHg 40%
    07:00 +13°C° 0 mm 0 mps 655 mmHg 39%
    08:00 +19°C° 0 mm 1 mps 656 mmHg 30%
    09:00 +23°C° 0 mm 1 mps 657 mmHg 21%
    10:00 +28°C° 0 mm 2 mps 658 mmHg 11%
    11:00 +29°C° 0 mm 2 mps 658 mmHg 10%
    12:00 +31°C° 0 mm 2 mps 657 mmHg 9%
    13:00 +34°C° 0 mm 2 mps 657 mmHg 8%
    14:00 +34°C° 0 mm 2 mps 656 mmHg 8%
    15:00 +32°C° 0 mm 2 mps 656 mmHg 8%
    16:00 +32°C° 0 mm 2 mps 655 mmHg 8%
    17:00 +29°C° 0 mm 2 mps 655 mmHg 10%
    18:00 +26°C° 0 mm 1 mps 655 mmHg 12%
    19:00 +23°C° 0 mm 1 mps 654 mmHg 15%
    20:00 +22°C° 0 mm 1 mps 654 mmHg 16%
    21:00 +21°C° 0 mm 1 mps 655 mmHg 18%
    22:00 +18°C° 0 mm 2 mps 655 mmHg 20%
    23:00 +18°C° 0 mm 1 mps 654 mmHg 22%

    26 July, Wednesday

    Time Temperature Precipitation Wind Pressure Humidity
    00:00 +18°C° 0 mm 1 mps 654 mmHg 25%
    01:00 +16°C° 0 mm 1 mps 653 mmHg 27%
    02:00 +15°C° 0 mm 1 mps 653 mmHg 27%
    03:00 +14°C° 0 mm 1 mps 653 mmHg 27%
    04:00 +13°C° 0 mm 0 mps 653 mmHg 27%
    05:00 +14°C° 0 mm 1 mps 653 mmHg 27%
    06:00 +14°C° 0 mm 1 mps 654 mmHg 26%
    07:00 +14°C° 0 mm 1 mps 654 mmHg 25%
    08:00 +19°C° 0 mm 1 mps 655 mmHg 21%
    09:00 +23°C° 0 mm 2 mps 656 mmHg 16%
    10:00 +27°C° 0 mm 3 mps 657 mmHg 12%
    11:00 +29°C° 0 mm 3 mps 657 mmHg 11%
    12:00 +30°C° 0 mm 3 mps 656 mmHg 10%
    13:00 +33°C° 0 mm 3 mps 656 mmHg 9%
    14:00 +32°C° 0 mm 2 mps 656 mmHg 9%
    15:00 +32°C° 0 mm 2 mps 655 mmHg 9%
    16:00 +32°C° 0 mm 1 mps 655 mmHg 8%
    17:00 +29°C° 0 mm 1 mps 655 mmHg 11%
    18:00 +26°C° 0 mm 1 mps 654 mmHg 13%
    19:00 +23°C° 0 mm 1 mps 654 mmHg 15%
    20:00 +22°C° 0 mm 1 mps 654 mmHg 16%
    21:00 +21°C° 0 mm 1 mps 655 mmHg 17%
    22:00 +20°C° 0 mm 1 mps 655 mmHg 17%
    23:00 +19°C° 0 mm 1 mps 655 mmHg 19%
    Show more